Time,TemperatureF,DewpointF,PressureIn,WindDirection,WindDirectionDegrees,WindSpeedMPH,WindSpeedGustMPH,Humidity,HourlyPrecipIn,Conditions,Clouds,dailyrainin,SoftwareType,DateUTC
2013-02-26 06:30:00,30.8,29.3,30.04,NW,314,0.0,0.0,94,0.00,,,0.00,Wunderground v.1.15,2013-02-26 11:30:00,
2013-02-26 06:40:00,30.8,29.3,30.04,NW,314,0.0,0.0,94,0.00,,,0.00,Wunderground v.1.15,2013-02-26 11:40:00,
2013-02-26 08:40:00,34.1,30.6,30.08,NNW,348,0.0,0.0,87,0.00,,,0.00,Wunderground v.1.15,2013-02-26 13:40:00,
2013-02-26 09:30:00,36.1,30.8,30.06,NNE,24,1.0,1.0,81,0.00,,,0.00,Wunderground v.1.15,2013-02-26 14:30:00,
2013-02-26 09:40:00,36.6,31.0,30.06,NE,37,2.0,2.0,80,0.00,,,0.00,Wunderground v.1.15,2013-02-26 14:40:00,
2013-02-26 09:50:00,37.2,30.7,30.06,NE,51,2.0,4.0,77,0.00,,,0.00,Wunderground v.1.15,2013-02-26 14:50:00,
2013-02-26 10:10:00,37.3,29.8,30.07,North,11,2.0,2.0,74,0.00,,,0.00,Wunderground v.1.15,2013-02-26 15:10:00,
2013-02-26 10:20:00,37.4,29.9,30.07,NNE,32,1.0,1.0,74,0.00,,,0.00,Wunderground v.1.15,2013-02-26 15:20:00,
2013-02-26 10:30:00,37.5,29.3,30.07,NE,34,1.0,1.0,72,0.00,,,0.00,Wunderground v.1.15,2013-02-26 15:30:00,
2013-02-26 10:40:00,37.3,28.4,30.07,NNE,19,2.0,2.0,70,0.00,,,0.00,Wunderground v.1.15,2013-02-26 15:40:00,
2013-02-26 12:00:00,37.7,27.0,30.07,East,98,0.0,5.0,65,0.00,,,0.00,Wunderground v.1.15,2013-02-26 17:00:00,
2013-02-26 12:10:00,37.4,28.2,30.07,NNE,24,0.0,0.0,69,0.00,,,0.00,Wunderground v.1.15,2013-02-26 17:10:00,
2013-02-26 12:20:00,37.5,27.2,30.06,NNE,24,1.0,1.0,66,0.00,,,0.00,Wunderground v.1.15,2013-02-26 17:20:00,
2013-02-26 12:30:00,37.6,28.0,30.06,NNE,24,0.0,0.0,68,0.00,,,0.00,Wunderground v.1.15,2013-02-26 17:30:00,
2013-02-26 12:40:00,37.7,28.4,30.05,ENE,58,0.0,1.0,69,0.00,,,0.00,Wunderground v.1.15,2013-02-26 17:40:00,
2013-02-26 12:50:00,37.5,28.9,30.05,NE,36,1.0,1.0,71,0.00,,,0.00,Wunderground v.1.15,2013-02-26 17:50:00,
2013-02-26 13:00:00,38.1,28.8,30.05,NE,36,0.0,0.0,69,0.00,,,0.00,Wunderground v.1.15,2013-02-26 18:00:00,
2013-02-26 13:10:00,38.1,29.2,30.05,NE,44,1.0,1.0,70,0.00,,,0.00,Wunderground v.1.15,2013-02-26 18:10:00,
2013-02-26 13:20:00,37.9,29.3,30.05,NE,44,0.0,0.0,71,0.00,,,0.00,Wunderground v.1.15,2013-02-26 18:20:00,
2013-02-26 13:30:00,38.0,29.1,30.04,South,172,1.0,1.0,70,0.00,,,0.00,Wunderground v.1.15,2013-02-26 18:30:00,
2013-02-26 13:40:00,38.3,28.3,30.04,ESE,106,0.0,0.0,67,0.00,,,0.00,Wunderground v.1.15,2013-02-26 18:40:00,
2013-02-26 14:30:00,37.8,28.9,30.02,ENE,68,1.0,1.0,70,0.00,,,0.00,Wunderground v.1.15,2013-02-26 19:30:00,
2013-02-26 15:00:00,37.9,29.0,30.01,NNE,13,1.0,1.0,70,0.00,,,0.00,Wunderground v.1.15,2013-02-26 20:00:00,
2013-02-26 15:10:00,37.8,29.2,30.01,ENE,70,1.0,1.0,71,0.00,,,0.00,Wunderground v.1.15,2013-02-26 20:10:00,
2013-02-26 15:20:00,38.2,29.3,30.01,NE,35,1.0,1.0,70,0.00,,,0.00,Wunderground v.1.15,2013-02-26 20:20:00,
2013-02-26 15:30:00,38.1,28.8,30.01,NNE,28,1.0,1.0,69,0.00,,,0.00,Wunderground v.1.15,2013-02-26 20:30:00,
2013-02-26 15:40:00,38.2,28.9,30.01,NE,45,1.0,1.0,69,0.00,,,0.00,Wunderground v.1.15,2013-02-26 20:40:00,
2013-02-26 15:50:00,38.2,29.3,30.01,ENE,58,0.0,0.0,70,0.00,,,0.00,Wunderground v.1.15,2013-02-26 20:50:00,
2013-02-26 16:00:00,38.3,28.7,30.00,SSE,148,0.0,0.0,68,0.00,,,0.00,Wunderground v.1.15,2013-02-26 21:00:00,
2013-02-26 16:10:00,38.2,28.6,30.00,ENE,60,1.0,1.0,68,0.00,,,0.00,Wunderground v.1.15,2013-02-26 21:10:00,
2013-02-26 16:20:00,38.0,28.4,29.99,ENE,76,1.0,1.0,68,0.00,,,0.00,Wunderground v.1.15,2013-02-26 21:20:00,
2013-02-26 17:40:00,36.2,25.9,29.98,ENE,60,1.0,1.0,66,0.00,,,0.00,Wunderground v.1.15,2013-02-26 22:40:00,
2013-02-26 17:50:00,35.9,26.7,29.99,East,82,0.0,0.0,69,0.00,,,0.00,Wunderground v.1.15,2013-02-26 22:50:00,
2013-02-26 18:00:00,35.4,26.2,29.99,NE,37,0.0,0.0,69,0.00,,,0.00,Wunderground v.1.15,2013-02-26 23:00:00,
2013-02-26 18:20:00,35.1,25.2,29.98,NE,48,1.0,1.0,67,0.00,,,0.00,Wunderground v.1.15,2013-02-26 23:20:00,
2013-02-26 18:30:00,34.9,25.8,29.97,NE,48,0.0,1.0,69,0.00,,,0.00,Wunderground v.1.15,2013-02-26 23:30:00,
2013-02-26 19:50:00,33.8,26.1,29.97,NE,44,2.0,2.0,73,0.00,,,0.00,Wunderground v.1.15,2013-02-27 00:50:00,